Location: Cañada de la Miga
(34.7595°N, 106.2317°W)
Time: 23:06:37
(UTC+00:00)

Vanguard 2 - All Passes

Search period start: 06 December 2021 00:00
Search period end: 16 December 2021 00:00
Orbit: 554 x 2936 km, 32.9° (Epoch: 06 December)

Date Brightness Start Highest point End Pass type
(mag) Time Alt. Az. Time Alt. Az. Time Alt. Az.
06 Dec - 00:35:29 10° W 00:42:35 44° SSW 00:54:05 10° SE visible
06 Dec - 02:45:44 10° WSW 02:52:57 20° SSW 03:02:25 10° S visible
06 Dec - 18:31:00 10° SW 18:34:28 29° SSE 18:38:24 10° E daylight
06 Dec - 20:37:57 10° WSW 20:42:18 72° S 20:48:44 10° E daylight
06 Dec - 22:45:22 10° W 22:50:56 63° S 23:00:14 10° ESE daylight
07 Dec - 00:53:28 10° W 01:00:25 35° SSW 01:11:09 10° SE visible
07 Dec - 03:05:41 10° WSW 03:10:52 14° SSW 03:17:01 10° S visible
07 Dec - 18:48:17 10° SW 18:52:00 41° SSE 18:56:22 10° E daylight
07 Dec - 20:55:36 10° W 21:00:00 74° S 21:06:38 10° E daylight
07 Dec - 23:03:04 10° W 23:08:42 53° SSW 23:17:55 10° ESE daylight
08 Dec - 01:11:41 10° WSW 01:18:15 27° SSW 01:27:48 10° SSE visible
08 Dec - 16:59:24 10° SSW 17:01:56 15° SSE 17:04:21 10° ESE daylight
08 Dec - 19:05:46 10° WSW 19:09:36 54° SSE 19:14:13 10° E daylight
08 Dec - 21:13:15 10° W 21:17:43 70° S 21:24:30 10° ESE daylight
08 Dec - 23:20:51 10° W 23:26:27 42° SSW 23:35:24 10° SE daylight
09 Dec - 01:30:24 10° WSW 01:36:09 19° SSW 01:43:49 10° SSE visible
09 Dec - 17:16:05 10° SSW 17:19:30 23° SSE 17:22:43 10° ESE daylight
09 Dec - 19:23:20 10° WSW 19:27:15 65° S 19:32:03 10° E daylight
09 Dec - 21:30:55 10° W 21:35:26 62° S 21:42:19 10° ESE daylight
09 Dec - 23:38:46 10° W 23:44:14 33° SSW 23:52:35 10° SE daylight
10 Dec - 01:50:13 10° SW 01:54:03 13° SSW 01:58:35 10° S visible
10 Dec - 17:33:14 10° SW 17:37:05 33° SSE 17:40:43 10° E daylight
10 Dec - 19:40:59 10° W 19:44:56 70° S 19:49:52 10° E daylight
10 Dec - 21:48:36 10° W 21:53:09 51° SSW 22:00:01 10° ESE daylight
10 Dec - 23:56:57 10° WSW 00:02:03 24° SSW 00:09:22 10° SSE daylight
11 Dec - 15:43:48 10° SSW 15:46:44 15° SSE 15:49:16 10° ESE daylight
11 Dec - 17:50:40 10° WSW 17:54:42 46° SSE 17:58:33 10° E daylight
11 Dec - 19:58:39 10° W 20:02:37 69° S 20:07:40 10° E daylight
11 Dec - 22:06:22 10° W 22:10:52 40° SSW 22:17:33 10° SE daylight
12 Dec - 00:15:36 10° WSW 00:19:54 17° SSW 00:25:30 10° SSE visible
12 Dec - 16:00:19 10° SSW 16:04:25 22° SSE 16:07:44 10° ESE daylight
12 Dec - 18:08:14 10° WSW 18:12:20 58° S 18:16:20 10° E daylight
12 Dec - 20:16:21 10° W 20:20:18 62° S 20:25:26 10° ESE daylight
12 Dec - 22:24:16 10° W 22:28:35 30° SSW 22:34:47 10° SE daylight
13 Dec - 00:35:42 10° SW 00:37:46 11° SSW 00:40:02 10° S visible
13 Dec - 14:12:12 10° SSE 14:13:33 11° SSE 14:14:48 10° SE daylight
13 Dec - 16:17:24 10° SW 16:22:05 32° SSE 16:25:45 10° E daylight
13 Dec - 18:25:55 10° WSW 18:30:01 67° S 18:34:04 10° E daylight
13 Dec - 20:34:03 10° W 20:37:59 51° SSW 20:43:06 10° ESE daylight
13 Dec - 22:42:24 10° WSW 22:46:20 22° SSW 22:51:39 10° SSE daylight
14 Dec - 14:27:05 10° SSW 14:31:20 17° SSE 14:34:41 10° ESE daylight
14 Dec - 16:34:46 10° WSW 16:39:44 43° SSE 16:43:36 10° E daylight
14 Dec - 18:43:37 10° W 18:47:42 69° S 18:51:48 10° E daylight
14 Dec - 20:51:49 10° W 20:55:39 39° SSW 21:00:38 10° SE daylight
14 Dec - 23:01:05 10° WSW 23:04:07 15° SSW 23:07:50 10° S daylight
15 Dec - 14:43:33 10° SSW 14:49:05 24° SSE 14:53:08 10° ESE daylight
15 Dec - 16:52:22 10° WSW 16:57:24 55° S 17:01:20 10° E daylight
15 Dec - 19:01:21 10° W 19:05:22 64° S 19:09:30 10° ESE daylight
15 Dec - 21:09:41 10° W 21:13:19 28° SSW 21:17:55 10° SE daylight
